Time,TemperatureF,DewpointF,PressureIn,WindDirection,WindDirectionDegrees,WindSpeedMPH,WindSpeedGustMPH,Humidity,HourlyPrecipIn,Conditions,Clouds,dailyrainin,SoftwareType,DateUTC
2013-01-20 00:00:00,34.3,23.0,29.89,SE,135,0.0,0.0,63,0.00,,,0.02,WUHU21623XXSP,2013-01-20 05:00:00,
2013-01-20 00:01:00,34.3,23.0,29.89,SE,135,0.0,0.0,63,0.00,,,0.02,WUHU21623XXSP,2013-01-20 05:01:00,
2013-01-20 00:03:00,34.3,23.0,29.89,SE,135,0.0,0.0,63,0.00,,,0.02,WUHU21623XXSP,2013-01-20 05:03:00,
2013-01-20 00:04:00,34.3,23.0,29.89,SE,135,0.0,0.0,63,0.00,,,0.00,WUHU21623XXSP,2013-01-20 05:04:00,
2013-01-20 00:09:00,34.5,23.2,29.89,SE,135,0.0,0.0,63,0.00,,,0.00,WUHU21623XXSP,2013-01-20 05:09:00,
2013-01-20 00:14:00,34.9,23.9,29.89,South,180,0.0,3.6,64,0.00,,,0.00,WUHU21623XXSP,2013-01-20 05:14:00,
2013-01-20 00:19:00,35.1,23.4,29.89,South,180,0.0,3.6,62,0.00,,,0.00,WUHU21623XXSP,2013-01-20 05:19:00,
2013-01-20 00:24:00,35.2,23.5,29.89,SE,135,1.1,4.0,62,0.00,,,0.00,WUHU21623XXSP,2013-01-20 05:24:00,
2013-01-20 00:29:00,35.2,23.5,29.89,SSE,157,0.0,4.0,62,0.00,,,0.00,WUHU21623XXSP,2013-01-20 05:29:00,
2013-01-20 00:34:00,35.2,23.5,29.89,SSE,157,0.0,7.6,62,0.00,,,0.00,WUHU21623XXSP,2013-01-20 05:34:00,
2013-01-20 00:39:00,35.2,24.3,29.89,SSE,157,0.0,7.6,64,0.00,,,0.00,WUHU21623XXSP,2013-01-20 05:39:00,
2013-01-20 00:44:00,35.2,24.3,29.89,South,180,0.0,4.5,64,0.00,,,0.00,WUHU21623XXSP,2013-01-20 05:44:00,
2013-01-20 00:49:00,35.4,24.1,29.88,SSE,157,0.0,3.4,63,0.00,,,0.00,WUHU21623XXSP,2013-01-20 05:49:00,
2013-01-20 00:54:00,35.8,24.4,29.89,SSE,157,0.0,3.4,63,0.00,,,0.00,WUHU21623XXSP,2013-01-20 05:54:00,
2013-01-20 00:59:00,35.8,24.4,29.88,SE,135,0.0,6.7,63,0.00,,,0.00,WUHU21623XXSP,2013-01-20 05:59:00,
2013-01-20 01:04:00,36.3,24.9,29.87,SSW,202,0.0,8.5,63,0.00,,,0.00,WUHU21623XXSP,2013-01-20 06:04:00,
2013-01-20 01:09:00,37.0,24.8,29.87,SSE,157,0.0,8.9,61,0.00,,,0.00,WUHU21623XXSP,2013-01-20 06:09:00,
2013-01-20 01:14:00,36.9,25.1,29.87,SE,135,1.3,8.9,62,0.00,,,0.00,WUHU21623XXSP,2013-01-20 06:14:00,
2013-01-20 01:19:00,37.0,25.2,29.86,SSE,157,0.0,7.8,62,0.00,,,0.00,WUHU21623XXSP,2013-01-20 06:19:00,
2013-01-20 01:24:00,37.0,25.2,29.85,SE,135,0.0,9.6,62,0.00,,,0.00,WUHU21623XXSP,2013-01-20 06:24:00,
2013-01-20 01:29:00,37.2,25.0,29.85,SSE,157,0.0,11.6,61,0.00,,,0.00,WUHU21623XXSP,2013-01-20 06:29:00,
2013-01-20 01:34:00,37.2,25.4,29.85,SSE,157,0.0,11.6,62,0.00,,,0.00,WUHU21623XXSP,2013-01-20 06:34:00,
2013-01-20 01:39:00,37.0,25.2,29.86,SSE,157,0.0,7.4,62,0.00,,,0.00,WUHU21623XXSP,2013-01-20 06:39:00,
2013-01-20 01:44:00,36.5,25.1,29.86,SSE,157,0.0,1.1,63,0.00,,,0.00,WUHU21623XXSP,2013-01-20 06:44:00,
2013-01-20 01:49:00,36.3,24.9,29.87,SSE,157,0.0,1.1,63,0.00,,,0.00,WUHU21623XXSP,2013-01-20 06:49:00,
2013-01-20 01:54:00,36.1,25.1,29.87,SSE,157,0.0,0.0,63,0.00,,,0.00,WUHU21623XXSP,2013-01-20 06:54:00,
2013-01-20 01:59:00,36.1,25.5,29.86,SSE,157,0.0,5.4,65,0.00,,,0.00,WUHU21623XXSP,2013-01-20 06:59:00,
2013-01-20 02:04:00,35.8,25.5,29.85,SSE,157,0.0,5.4,66,0.00,,,0.00,WUHU21623XXSP,2013-01-20 07:04:00,
2013-01-20 02:09:00,35.4,25.2,29.84,SSE,157,0.0,2.0,66,0.00,,,0.00,WUHU21623XXSP,2013-01-20 07:09:00,
2013-01-20 02:14:00,35.2,25.3,29.84,SSE,157,0.0,0.0,67,0.00,,,0.00,WUHU21623XXSP,2013-01-20 07:14:00,
2013-01-20 02:19:00,35.1,25.5,29.84,ESE,112,0.0,5.8,68,0.00,,,0.00,WUHU21623XXSP,2013-01-20 07:19:00,
2013-01-20 02:24:00,35.2,25.7,29.83,SE,135,0.0,6.5,68,0.00,,,0.00,WUHU21623XXSP,2013-01-20 07:24:00,
2013-01-20 02:29:00,35.2,25.3,29.82,SE,135,0.0,8.3,67,0.00,,,0.00,WUHU21623XXSP,2013-01-20 07:29:00,
2013-01-20 02:34:00,35.2,25.3,29.83,SE,135,0.0,8.3,67,0.00,,,0.00,WUHU21623XXSP,2013-01-20 07:34:00,
2013-01-20 02:39:00,35.2,25.3,29.82,SSE,157,0.0,6.9,67,0.00,,,0.00,WUHU21623XXSP,2013-01-20 07:39:00,
2013-01-20 02:44:00,34.9,25.0,29.82,SSE,157,0.0,4.3,67,0.00,,,0.00,WUHU21623XXSP,2013-01-20 07:44:00,
2013-01-20 02:49:00,34.7,24.8,29.82,SE,135,0.0,0.0,67,0.00,,,0.00,WUHU21623XXSP,2013-01-20 07:49:00,
2013-01-20 02:54:00,34.3,24.8,29.82,SSE,157,0.0,0.0,68,0.00,,,0.00,WUHU21623XXSP,2013-01-20 07:54:00,
2013-01-20 02:59:00,34.3,24.8,29.81,SE,135,0.0,0.0,68,0.00,,,0.00,WUHU21623XXSP,2013-01-20 07:59:00,
2013-01-20 03:04:00,34.7,25.5,29.81,SSE,157,0.0,5.8,69,0.00,,,0.00,WUHU21623XXSP,2013-01-20 08:04:00,
2013-01-20 03:09:00,34.3,25.2,29.81,South,180,0.0,5.8,69,0.00,,,0.00,WUHU21623XXSP,2013-01-20 08:09:00,
2013-01-20 03:14:00,34.3,25.2,29.82,South,180,0.0,0.0,69,0.00,,,0.00,WUHU21623XXSP,2013-01-20 08:14:00,
2013-01-20 03:19:00,34.3,25.2,29.81,South,180,0.0,0.0,69,0.00,,,0.00,WUHU21623XXSP,2013-01-20 08:19:00,
2013-01-20 03:24:00,34.0,25.2,29.81,South,180,0.0,0.0,70,0.00,,,0.00,WUHU21623XXSP,2013-01-20 08:24:00,
2013-01-20 03:29:00,33.6,24.8,29.80,South,180,0.0,0.0,70,0.00,,,0.00,WUHU21623XXSP,2013-01-20 08:29:00,
2013-01-20 03:34:00,33.6,25.1,29.80,South,180,0.0,0.0,71,0.00,,,0.00,WUHU21623XXSP,2013-01-20 08:34:00,
2013-01-20 03:39:00,33.6,25.1,29.79,South,180,0.0,0.0,71,0.00,,,0.00,WUHU21623XXSP,2013-01-20 08:39:00,
2013-01-20 03:44:00,33.4,25.0,29.79,South,180,0.0,0.0,71,0.00,,,0.00,WUHU21623XXSP,2013-01-20 08:44:00,
2013-01-20 03:49:00,33.4,25.0,29.79,South,180,0.0,0.0,71,0.00,,,0.00,WUHU21623XXSP,2013-01-20 08:49:00,
2013-01-20 03:54:00,33.1,25.0,29.79,South,180,0.0,0.0,72,0.00,,,0.00,WUHU21623XXSP,2013-01-20 08:54:00,
2013-01-20 03:59:00,33.4,25.3,29.78,South,180,0.0,0.0,72,0.00,,,0.00,WUHU21623XXSP,2013-01-20 08:59:00,
2013-01-20 04:04:00,33.4,25.3,29.78,South,180,0.0,0.0,72,0.00,,,0.00,WUHU21623XXSP,2013-01-20 09:04:00,
2013-01-20 04:09:00,33.3,25.1,29.77,South,180,0.0,0.0,72,0.00,,,0.00,WUHU21623XXSP,2013-01-20 09:09:00,
2013-01-20 04:14:00,33.1,25.0,29.76,South,180,0.0,0.0,72,0.00,,,0.00,WUHU21623XXSP,2013-01-20 09:14:00,
2013-01-20 04:19:00,33.1,25.0,29.76,South,180,0.0,0.0,72,0.00,,,0.00,WUHU21623XXSP,2013-01-20 09:19:00,
2013-01-20 04:24:00,32.7,24.7,29.76,SE,135,0.0,4.5,72,0.00,,,0.00,WUHU21623XXSP,2013-01-20 09:24:00,
2013-01-20 04:29:00,33.1,25.3,29.76,SE,135,0.0,4.5,73,0.00,,,0.00,WUHU21623XXSP,2013-01-20 09:29:00,
2013-01-20 04:34:00,32.7,25.0,29.75,ESE,112,0.0,0.0,73,0.00,,,0.00,WUHU21623XXSP,2013-01-20 09:34:00,
2013-01-20 04:39:00,32.7,25.0,29.75,SSE,157,0.0,4.9,73,0.00,,,0.00,WUHU21623XXSP,2013-01-20 09:39:00,
2013-01-20 04:44:00,32.5,24.8,29.75,South,180,0.0,4.9,73,0.00,,,0.00,WUHU21623XXSP,2013-01-20 09:44:00,
2013-01-20 04:49:00,32.7,25.0,29.75,SE,135,0.0,2.5,73,0.00,,,0.00,WUHU21623XXSP,2013-01-20 09:49:00,
2013-01-20 04:54:00,32.7,25.3,29.74,SSE,157,0.0,8.5,74,0.00,,,0.00,WUHU21623XXSP,2013-01-20 09:54:00,
2013-01-20 04:59:00,32.7,25.3,29.74,SSE,157,0.0,8.5,74,0.00,,,0.00,WUHU21623XXSP,2013-01-20 09:59:00,
2013-01-20 05:04:00,32.7,25.3,29.74,SSE,157,0.0,8.9,74,0.00,,,0.00,WUHU21623XXSP,2013-01-20 10:04:00,
2013-01-20 05:09:00,32.5,25.1,29.74,SSE,157,0.0,8.9,74,0.00,,,0.00,WUHU21623XXSP,2013-01-20 10:09:00,
2013-01-20 05:14:00,33.1,25.6,29.73,SE,135,0.0,6.3,74,0.00,,,0.00,WUHU21623XXSP,2013-01-20 10:14:00,
2013-01-20 05:19:00,33.1,25.3,29.72,SE,135,0.0,6.3,73,0.00,,,0.00,WUHU21623XXSP,2013-01-20 10:19:00,
2013-01-20 05:24:00,33.1,25.3,29.71,South,180,0.0,0.0,73,0.00,,,0.00,WUHU21623XXSP,2013-01-20 10:24:00,
2013-01-20 05:29:00,33.4,25.6,29.71,SSE,157,0.0,7.4,73,0.00,,,0.00,WUHU21623XXSP,2013-01-20 10:29:00,
2013-01-20 05:34:00,33.1,25.3,29.71,ESE,112,0.0,7.8,73,0.00,,,0.00,WUHU21623XXSP,2013-01-20 10:34:00,
2013-01-20 05:39:00,32.7,25.0,29.69,ESE,112,0.0,7.8,73,0.00,,,0.00,WUHU21623XXSP,2013-01-20 10:39:00,
2013-01-20 05:44:00,32.7,25.0,29.69,SE,135,0.0,6.3,73,0.00,,,0.00,WUHU21623XXSP,2013-01-20 10:44:00,
2013-01-20 05:49:00,32.5,25.1,29.69,ESE,112,0.0,6.3,74,0.00,,,0.00,WUHU21623XXSP,2013-01-20 10:49:00,
2013-01-20 05:54:00,32.5,25.1,29.69,SE,135,0.0,6.7,74,0.00,,,0.00,WUHU21623XXSP,2013-01-20 10:54:00,
2013-01-20 05:59:00,32.9,25.5,29.68,SE,135,0.0,10.5,74,0.00,,,0.00,WUHU21623XXSP,2013-01-20 10:59:00,
2013-01-20 06:04:00,32.9,25.5,29.68,SSE,157,0.0,10.5,74,0.00,,,0.00,WUHU21623XXSP,2013-01-20 11:04:00,
2013-01-20 06:09:00,33.3,25.8,29.68,SE,135,2.9,10.3,74,0.00,,,0.00,WUHU21623XXSP,2013-01-20 11:09:00,
2013-01-20 06:14:00,33.4,25.6,29.68,South,180,0.0,10.3,73,0.00,,,0.00,WUHU21623XXSP,2013-01-20 11:14:00,
2013-01-20 06:19:00,33.6,25.8,29.67,South,180,0.0,9.2,73,0.00,,,0.00,WUHU21623XXSP,2013-01-20 11:19:00,
2013-01-20 06:24:00,33.4,25.6,29.67,SSE,157,5.8,5.8,73,0.00,,,0.00,WUHU21623XXSP,2013-01-20 11:24:00,
2013-01-20 06:29:00,33.4,25.6,29.67,SSE,157,0.0,8.9,73,0.00,,,0.00,WUHU21623XXSP,2013-01-20 11:29:00,
2013-01-20 06:34:00,33.6,25.6,29.67,SE,135,1.3,13.0,73,0.00,,,0.00,WUHU21623XXSP,2013-01-20 11:34:00,
2013-01-20 06:39:00,33.8,25.6,29.67,South,180,3.8,13.0,72,0.00,,,0.00,WUHU21623XXSP,2013-01-20 11:39:00,
2013-01-20 06:44:00,33.8,25.6,29.66,SSW,202,10.1,11.9,72,0.00,,,0.00,WUHU21623XXSP,2013-01-20 11:44:00,
2013-01-20 06:49:00,34.0,25.8,29.65,South,180,0.0,14.5,72,0.00,,,0.00,WUHU21623XXSP,2013-01-20 11:49:00,
2013-01-20 06:54:00,34.3,25.8,29.65,SSE,157,0.0,14.5,71,0.00,,,0.00,WUHU21623XXSP,2013-01-20 11:54:00,
2013-01-20 06:59:00,34.3,25.8,29.65,South,180,2.2,18.6,71,0.00,,,0.00,WUHU21623XXSP,2013-01-20 11:59:00,
2013-01-20 07:04:00,34.7,25.9,29.65,South,180,0.0,18.6,70,0.00,,,0.00,WUHU21623XXSP,2013-01-20 12:04:00,
2013-01-20 07:09:00,34.9,25.7,29.65,South,180,6.5,12.1,69,0.00,,,0.00,WUHU21623XXSP,2013-01-20 12:09:00,
2013-01-20 07:14:00,35.1,25.9,29.65,South,180,20.1,20.1,69,0.00,,,0.00,WUHU21623XXSP,2013-01-20 12:14:00,
2013-01-20 07:19:00,35.1,25.9,29.65,SSE,157,12.1,20.1,69,0.00,,,0.00,WUHU21623XXSP,2013-01-20 12:19:00,
2013-01-20 07:24:00,35.2,25.7,29.64,SE,135,0.0,17.7,68,0.00,,,0.00,WUHU21623XXSP,2013-01-20 12:24:00,
2013-01-20 07:29:00,35.4,26.2,29.64,ESE,112,5.4,17.2,69,0.00,,,0.00,WUHU21623XXSP,2013-01-20 12:29:00,
2013-01-20 07:34:00,36.0,26.4,29.64,SSE,157,2.9,18.8,68,0.00,,,0.00,WUHU21623XXSP,2013-01-20 12:34:00,
2013-01-20 07:39:00,35.8,26.2,29.64,SE,135,11.0,18.8,68,0.00,,,0.00,WUHU21623XXSP,2013-01-20 12:39:00,
2013-01-20 07:44:00,35.6,26.1,29.64,SSE,157,11.0,17.7,68,0.00,,,0.00,WUHU21623XXSP,2013-01-20 12:44:00,
2013-01-20 07:49:00,35.4,25.9,29.64,South,180,6.9,17.7,68,0.00,,,0.00,WUHU21623XXSP,2013-01-20 12:49:00,
2013-01-20 07:54:00,35.4,25.9,29.64,East,90,0.0,14.3,68,0.00,,,0.00,WUHU21623XXSP,2013-01-20 12:54:00,
2013-01-20 07:59:00,35.4,26.2,29.64,SSE,157,3.4,14.3,69,0.00,,,0.00,WUHU21623XXSP,2013-01-20 12:59:00,
2013-01-20 08:04:00,35.8,26.2,29.64,SSE,157,1.8,14.3,68,0.00,,,0.00,WUHU21623XXSP,2013-01-20 13:04:00,
2013-01-20 08:09:00,36.1,26.2,29.64,SSW,202,5.8,19.0,67,0.00,,,0.00,WUHU21623XXSP,2013-01-20 13:09:00,
2013-01-20 08:14:00,36.3,26.4,29.63,SSE,157,11.9,19.0,67,0.00,,,0.00,WUHU21623XXSP,2013-01-20 13:14:00,
2013-01-20 08:19:00,36.3,26.4,29.63,South,180,11.0,15.0,67,0.00,,,0.00,WUHU21623XXSP,2013-01-20 13:19:00,
2013-01-20 08:24:00,36.3,26.4,29.63,South,180,3.1,14.1,67,0.00,,,0.00,WUHU21623XXSP,2013-01-20 13:24:00,
2013-01-20 08:29:00,36.5,26.6,29.63,SE,135,5.8,20.4,67,0.00,,,0.00,WUHU21623XXSP,2013-01-20 13:29:00,
2013-01-20 08:34:00,36.7,26.7,29.63,SSE,157,11.4,20.4,67,0.00,,,0.00,WUHU21623XXSP,2013-01-20 13:34:00,
2013-01-20 08:39:00,36.9,26.9,29.62,SSE,157,7.4,20.1,67,0.00,,,0.00,WUHU21623XXSP,2013-01-20 13:39:00,
2013-01-20 08:44:00,36.9,26.7,29.62,ESE,112,4.3,20.1,67,0.00,,,0.00,WUHU21623XXSP,2013-01-20 13:44:00,
2013-01-20 08:49:00,37.2,26.9,29.63,SSE,157,7.2,19.0,66,0.00,,,0.00,WUHU21623XXSP,2013-01-20 13:49:00,
2013-01-20 08:54:00,37.2,26.9,29.62,South,180,6.5,18.6,66,0.00,,,0.00,WUHU21623XXSP,2013-01-20 13:54:00,
2013-01-20 08:59:00,37.2,26.9,29.62,SSE,157,4.5,21.0,66,0.00,,,0.00,WUHU21623XXSP,2013-01-20 13:59:00,
2013-01-20 09:04:00,37.6,27.2,29.62,SSE,157,3.8,23.3,66,0.00,,,0.00,WUHU21623XXSP,2013-01-20 14:04:00,
2013-01-20 09:09:00,37.8,27.0,29.61,SE,135,4.9,23.3,65,0.00,,,0.00,WUHU21623XXSP,2013-01-20 14:09:00,
2013-01-20 09:14:00,38.1,27.0,29.61,SE,135,3.6,21.0,64,0.00,,,0.00,WUHU21623XXSP,2013-01-20 14:14:00,
2013-01-20 09:19:00,38.5,27.3,29.61,SSE,157,7.4,21.3,64,0.00,,,0.00,WUHU21623XXSP,2013-01-20 14:19:00,
2013-01-20 09:20:00,38.5,27.3,29.62,SSE,157,10.3,21.3,64,0.00,,,0.00,WUHU21623XXSP,2013-01-20 14:20:00,
2013-01-20 09:33:00,38.8,27.2,29.61,SE,135,10.3,31.3,63,0.00,,,0.00,WUHU21623XXSP,2013-01-20 14:33:00,
2013-01-20 09:38:00,39.0,27.4,29.61,SE,135,11.0,16.8,63,0.00,,,0.00,WUHU21623XXSP,2013-01-20 14:38:00,
2013-01-20 09:43:00,39.0,27.0,29.61,SE,135,11.0,21.9,62,0.00,,,0.00,WUHU21623XXSP,2013-01-20 14:43:00,
2013-01-20 09:48:00,39.4,27.4,29.61,South,180,7.8,21.9,62,0.00,,,0.00,WUHU21623XXSP,2013-01-20 14:48:00,
2013-01-20 09:53:00,39.4,27.4,29.61,SSE,157,8.5,18.1,62,0.00,,,0.00,WUHU21623XXSP,2013-01-20 14:53:00,
2013-01-20 09:58:00,39.7,27.3,29.60,SE,135,11.0,18.6,61,0.00,,,0.00,WUHU21623XXSP,2013-01-20 14:58:00,
2013-01-20 10:03:00,40.3,27.9,29.61,SE,135,22.4,25.3,61,0.00,,,0.00,WUHU21623XXSP,2013-01-20 15:03:00,
2013-01-20 10:09:00,40.3,27.9,29.61,SSE,157,1.3,25.3,61,0.00,,,0.00,WUHU21623XXSP,2013-01-20 15:09:00,
2013-01-20 10:14:00,40.6,27.9,29.61,South,180,10.1,17.4,60,0.00,,,0.00,WUHU21623XXSP,2013-01-20 15:14:00,
2013-01-20 10:18:00,41.2,27.9,29.60,SSE,157,13.6,29.3,59,0.00,,,0.00,WUHU21623XXSP,2013-01-20 15:18:00,
2013-01-20 10:24:00,41.5,27.8,29.61,SSE,157,6.7,29.3,58,0.00,,,0.00,WUHU21623XXSP,2013-01-20 15:24:00,
2013-01-20 10:29:00,41.9,27.7,29.61,SSE,157,5.8,19.5,57,0.00,,,0.00,WUHU21623XXSP,2013-01-20 15:29:00,
2013-01-20 10:34:00,41.9,27.7,29.61,SSE,157,12.3,14.8,57,0.00,,,0.00,WUHU21623XXSP,2013-01-20 15:34:00,
2013-01-20 10:39:00,42.3,28.5,29.61,South,180,10.7,22.8,58,0.00,,,0.00,WUHU21623XXSP,2013-01-20 15:39:00,
2013-01-20 10:43:00,42.1,27.9,29.61,South,180,13.0,22.8,57,0.00,,,0.00,WUHU21623XXSP,2013-01-20 15:43:00,
2013-01-20 10:49:00,42.6,28.4,29.60,SSE,157,3.8,26.8,57,0.00,,,0.00,WUHU21623XXSP,2013-01-20 15:49:00,
2013-01-20 10:53:00,42.8,28.5,29.61,SSW,202,30.9,30.9,57,0.00,,,0.00,WUHU21623XXSP,2013-01-20 15:53:00,
2013-01-20 10:58:00,43.0,28.3,29.61,WSW,247,6.0,30.9,56,0.00,,,0.00,WUHU21623XXSP,2013-01-20 15:58:00,
2013-01-20 11:03:00,43.0,28.3,29.62,South,180,6.0,30.9,56,0.00,,,0.00,WUHU21623XXSP,2013-01-20 16:03:00,
2013-01-20 11:08:00,42.8,28.1,29.62,South,180,7.4,17.7,56,0.02,,,0.02,WUHU21623XXSP,2013-01-20 16:08:00,
2013-01-20 11:13:00,43.0,29.1,29.62,West,270,5.4,17.7,58,0.02,,,0.02,WUHU21623XXSP,2013-01-20 16:13:00,
2013-01-20 11:18:00,42.6,28.8,29.63,South,180,14.1,21.3,58,0.02,,,0.02,WUHU21623XXSP,2013-01-20 16:18:00,
2013-01-20 11:23:00,41.7,29.2,29.63,ENE,67,8.3,22.6,61,0.02,,,0.02,WUHU21623XXSP,2013-01-20 16:23:00,
2013-01-20 11:28:00,41.0,29.7,29.62,SSW,202,16.1,22.6,64,0.02,,,0.02,WUHU21623XXSP,2013-01-20 16:28:00,
2013-01-20 11:33:00,40.6,29.4,29.63,South,180,9.2,21.5,64,0.02,,,0.02,WUHU21623XXSP,2013-01-20 16:33:00,
2013-01-20 11:38:00,40.3,29.0,29.63,SSE,157,5.4,21.5,64,0.02,,,0.02,WUHU21623XXSP,2013-01-20 16:38:00,
2013-01-20 11:43:00,39.9,29.4,29.63,SW,225,6.3,28.4,66,0.04,,,0.04,WUHU21623XXSP,2013-01-20 16:43:00,
2013-01-20 11:49:00,39.6,29.4,29.63,West,270,8.7,28.4,67,0.04,,,0.04,WUHU21623XXSP,2013-01-20 16:49:00,
2013-01-20 11:53:00,39.4,29.6,29.63,East,90,7.6,24.6,68,0.04,,,0.04,WUHU21623XXSP,2013-01-20 16:53:00,
2013-01-20 11:59:00,39.4,29.2,29.63,South,180,4.9,22.6,67,0.04,,,0.04,WUHU21623XXSP,2013-01-20 16:59:00,
2013-01-20 12:03:00,39.0,29.3,29.64,SSE,157,0.2,22.6,68,0.04,,,0.04,WUHU21623XXSP,2013-01-20 17:03:00,
2013-01-20 12:08:00,38.8,29.9,29.65,SE,135,11.0,23.5,70,0.02,,,0.04,WUHU21623XXSP,2013-01-20 17:08:00,
2013-01-20 12:13:00,38.3,29.7,29.64,SSE,157,14.1,23.5,71,0.02,,,0.04,WUHU21623XXSP,2013-01-20 17:13:00,
2013-01-20 12:18:00,37.9,29.1,29.64,SW,225,16.6,22.4,70,0.02,,,0.04,WUHU21623XXSP,2013-01-20 17:18:00,
2013-01-20 12:23:00,37.9,28.3,29.63,South,180,4.9,22.8,68,0.04,,,0.06,WUHU21623XXSP,2013-01-20 17:23:00,
2013-01-20 12:28:00,37.8,27.4,29.62,ESE,112,19.0,22.8,66,0.04,,,0.06,WUHU21623XXSP,2013-01-20 17:28:00,
2013-01-20 12:33:00,37.6,26.9,29.63,NW,315,5.1,21.9,65,0.04,,,0.06,WUHU21623XXSP,2013-01-20 17:33:00,
2013-01-20 12:38:00,37.2,26.5,29.63,SE,135,23.9,23.9,65,0.04,,,0.06,WUHU21623XXSP,2013-01-20 17:38:00,
2013-01-20 12:43:00,37.2,26.1,29.62,SE,135,11.2,23.9,64,0.02,,,0.06,WUHU21623XXSP,2013-01-20 17:43:00,
2013-01-20 12:49:00,37.2,26.1,29.63,SSE,157,4.9,20.4,64,0.02,,,0.06,WUHU21623XXSP,2013-01-20 17:49:00,
2013-01-20 12:53:00,37.2,25.8,29.63,SW,225,2.5,19.7,63,0.02,,,0.06,WUHU21623XXSP,2013-01-20 17:53:00,
2013-01-20 12:58:00,37.2,25.4,29.62,SSW,202,3.4,21.7,62,0.02,,,0.06,WUHU21623XXSP,2013-01-20 17:58:00,
2013-01-20 13:03:00,37.2,25.4,29.63,South,180,4.3,21.7,62,0.02,,,0.06,WUHU21623XXSP,2013-01-20 18:03:00,
2013-01-20 13:08:00,37.6,24.5,29.63,SSE,157,22.4,22.4,59,0.02,,,0.06,WUHU21623XXSP,2013-01-20 18:08:00,
2013-01-20 13:13:00,37.9,24.0,29.64,SSW,202,3.6,22.4,58,0.02,,,0.06,WUHU21623XXSP,2013-01-20 18:13:00,
2013-01-20 13:18:00,37.9,23.1,29.64,SW,225,9.6,22.6,55,0.02,,,0.06,WUHU21623XXSP,2013-01-20 18:18:00,
2013-01-20 13:23:00,38.3,22.6,29.64,SSE,157,6.5,22.6,53,0.00,,,0.06,WUHU21623XXSP,2013-01-20 18:23:00,
2013-01-20 13:28:00,38.5,20.9,29.63,SW,225,9.2,27.3,49,0.00,,,0.06,WUHU21623XXSP,2013-01-20 18:28:00,
2013-01-20 13:33:00,38.5,19.4,29.64,South,180,15.2,27.3,46,0.00,,,0.06,WUHU21623XXSP,2013-01-20 18:33:00,
2013-01-20 13:38:00,39.0,19.3,29.64,SSW,202,3.4,20.8,44,0.00,,,0.06,WUHU21623XXSP,2013-01-20 18:38:00,
2013-01-20 13:43:00,39.4,20.2,29.65,South,180,4.3,17.7,46,0.00,,,0.06,WUHU21623XXSP,2013-01-20 18:43:00,
2013-01-20 13:48:00,39.4,20.2,29.65,SSE,157,11.4,14.5,46,0.00,,,0.06,WUHU21623XXSP,2013-01-20 18:48:00,
2013-01-20 13:53:00,39.6,19.3,29.65,WSW,247,2.5,19.0,44,0.00,,,0.06,WUHU21623XXSP,2013-01-20 18:53:00,
2013-01-20 13:58:00,39.4,19.7,29.66,SSE,157,2.7,19.0,45,0.00,,,0.06,WUHU21623XXSP,2013-01-20 18:58:00,
2013-01-20 14:03:00,39.0,18.8,29.66,SW,225,3.6,15.2,44,0.00,,,0.06,WUHU21623XXSP,2013-01-20 19:03:00,
2013-01-20 14:08:00,39.4,18.6,29.66,South,180,0.0,16.1,43,0.00,,,0.06,WUHU21623XXSP,2013-01-20 19:08:00,
2013-01-20 14:13:00,39.4,18.1,29.66,SE,135,12.5,16.1,42,0.00,,,0.06,WUHU21623XXSP,2013-01-20 19:13:00,
2013-01-20 14:18:00,39.4,17.6,29.66,WSW,247,1.6,15.7,41,0.00,,,0.06,WUHU21623XXSP,2013-01-20 19:18:00,
2013-01-20 14:23:00,39.0,18.3,29.67,SSW,202,2.9,15.7,43,0.00,,,0.06,WUHU21623XXSP,2013-01-20 19:23:00,
2013-01-20 14:28:00,38.8,17.6,29.67,SE,135,0.0,15.0,42,0.00,,,0.06,WUHU21623XXSP,2013-01-20 19:28:00,
2013-01-20 14:33:00,38.7,16.9,29.68,South,180,8.1,21.7,41,0.00,,,0.06,WUHU21623XXSP,2013-01-20 19:33:00,
2013-01-20 14:38:00,38.1,15.9,29.68,SW,225,11.4,21.7,40,0.00,,,0.06,WUHU21623XXSP,2013-01-20 19:38:00,
2013-01-20 14:43:00,37.9,16.3,29.69,SSW,202,2.7,20.1,41,0.00,,,0.06,WUHU21623XXSP,2013-01-20 19:43:00,
2013-01-20 14:48:00,37.6,16.5,29.69,SE,135,10.3,20.1,42,0.00,,,0.06,WUHU21623XXSP,2013-01-20 19:48:00,
2013-01-20 14:53:00,37.2,16.1,29.69,SW,225,5.4,17.4,42,0.00,,,0.06,WUHU21623XXSP,2013-01-20 19:53:00,
2013-01-20 14:58:00,37.2,16.7,29.70,SSW,202,3.6,17.2,43,0.00,,,0.06,WUHU21623XXSP,2013-01-20 19:58:00,
2013-01-20 15:03:00,36.7,16.7,29.70,WSW,247,8.7,14.5,44,0.00,,,0.06,WUHU21623XXSP,2013-01-20 20:03:00,
2013-01-20 15:08:00,36.3,15.9,29.71,SSE,157,2.0,24.2,43,0.00,,,0.06,WUHU21623XXSP,2013-01-20 20:08:00,
2013-01-20 15:13:00,36.0,16.1,29.71,SSW,202,4.3,35.3,44,0.00,,,0.06,WUHU21623XXSP,2013-01-20 20:13:00,
2013-01-20 15:18:00,35.8,15.9,29.72,SSE,157,2.2,35.3,44,0.00,,,0.06,WUHU21623XXSP,2013-01-20 20:18:00,
2013-01-20 15:23:00,35.4,16.1,29.72,SSW,202,0.0,24.2,45,0.00,,,0.06,WUHU21623XXSP,2013-01-20 20:23:00,
2013-01-20 15:28:00,35.2,16.9,29.72,South,180,13.0,17.7,47,0.00,,,0.06,WUHU21623XXSP,2013-01-20 20:28:00,
2013-01-20 15:33:00,35.2,16.4,29.73,West,270,5.1,17.2,46,0.00,,,0.06,WUHU21623XXSP,2013-01-20 20:33:00,
2013-01-20 15:38:00,34.9,15.6,29.74,SW,225,4.3,17.2,45,0.00,,,0.06,WUHU21623XXSP,2013-01-20 20:38:00,
2013-01-20 15:43:00,34.3,16.1,29.74,SE,135,10.1,18.1,47,0.00,,,0.06,WUHU21623XXSP,2013-01-20 20:43:00,
2013-01-20 15:48:00,33.8,15.5,29.75,WSW,247,2.7,18.1,47,0.00,,,0.06,WUHU21623XXSP,2013-01-20 20:48:00,
2013-01-20 15:53:00,33.6,14.9,29.75,SSW,202,6.5,20.1,46,0.00,,,0.06,WUHU21623XXSP,2013-01-20 20:53:00,
2013-01-20 15:58:00,33.6,15.9,29.76,South,180,1.6,20.1,48,0.00,,,0.06,WUHU21623XXSP,2013-01-20 20:58:00,
2013-01-20 16:03:00,33.3,14.6,29.76,SSE,157,3.8,18.3,46,0.00,,,0.06,WUHU21623XXSP,2013-01-20 21:03:00,
2013-01-20 16:08:00,32.9,15.2,29.77,West,270,0.0,18.3,48,0.00,,,0.06,WUHU21623XXSP,2013-01-20 21:08:00,
2013-01-20 16:13:00,32.5,14.4,29.78,SSE,157,4.7,16.6,47,0.00,,,0.06,WUHU21623XXSP,2013-01-20 21:13:00,
2013-01-20 16:18:00,32.5,14.4,29.78,SSW,202,7.6,18.3,47,0.00,,,0.06,WUHU21623XXSP,2013-01-20 21:18:00,
2013-01-20 16:23:00,32.0,15.4,29.78,SSW,202,6.0,18.3,50,0.00,,,0.06,WUHU21623XXSP,2013-01-20 21:23:00,
2013-01-20 16:28:00,31.8,15.7,29.79,SSW,202,0.0,13.9,51,0.00,,,0.06,WUHU21623XXSP,2013-01-20 21:28:00,
2013-01-20 16:33:00,31.6,15.5,29.79,West,270,0.0,12.8,51,0.00,,,0.06,WUHU21623XXSP,2013-01-20 21:33:00,
2013-01-20 16:38:00,31.6,15.1,29.79,WSW,247,7.2,21.9,50,0.00,,,0.06,WUHU21623XXSP,2013-01-20 21:38:00,
2013-01-20 16:43:00,31.3,15.2,29.80,SSE,157,2.2,21.9,51,0.00,,,0.06,WUHU21623XXSP,2013-01-20 21:43:00,
2013-01-20 16:48:00,30.9,14.9,29.80,East,90,6.0,13.6,51,0.00,,,0.06,WUHU21623XXSP,2013-01-20 21:48:00,
2013-01-20 16:53:00,30.7,14.7,29.81,SE,135,0.0,12.1,51,0.00,,,0.06,WUHU21623XXSP,2013-01-20 21:53:00,
2013-01-20 16:58:00,30.7,14.7,29.81,South,180,3.6,14.1,51,0.00,,,0.06,WUHU21623XXSP,2013-01-20 21:58:00,
2013-01-20 17:03:00,30.7,14.7,29.81,SSW,202,17.0,20.6,51,0.00,,,0.06,WUHU21623XXSP,2013-01-20 22:03:00,
2013-01-20 17:08:00,30.6,15.0,29.82,South,180,0.0,20.6,52,0.00,,,0.06,WUHU21623XXSP,2013-01-20 22:08:00,
2013-01-20 17:13:00,30.4,14.4,29.82,SSW,202,3.4,15.9,51,0.00,,,0.06,WUHU21623XXSP,2013-01-20 22:13:00,
2013-01-20 17:18:00,30.0,13.7,29.82,South,180,8.1,15.9,50,0.00,,,0.06,WUHU21623XXSP,2013-01-20 22:18:00,
2013-01-20 17:23:00,30.0,14.1,29.82,SSW,202,5.4,15.2,51,0.00,,,0.06,WUHU21623XXSP,2013-01-20 22:23:00,
2013-01-20 17:28:00,29.7,13.7,29.83,SSE,157,6.3,15.2,51,0.00,,,0.06,WUHU21623XXSP,2013-01-20 22:28:00,
2013-01-20 17:33:00,29.1,14.1,29.83,SW,225,0.0,11.9,53,0.00,,,0.06,WUHU21623XXSP,2013-01-20 22:33:00,
2013-01-20 17:38:00,28.8,14.6,29.84,SW,225,5.6,7.8,55,0.00,,,0.06,WUHU21623XXSP,2013-01-20 22:38:00,
2013-01-20 17:43:00,28.6,14.0,29.83,SW,225,0.0,9.2,54,0.00,,,0.06,WUHU21623XXSP,2013-01-20 22:43:00,
2013-01-20 17:48:00,28.4,14.3,29.84,WNW,292,3.4,9.2,55,0.00,,,0.06,WUHU21623XXSP,2013-01-20 22:48:00,
2013-01-20 17:53:00,28.2,14.5,29.84,ESE,112,5.1,10.1,56,0.00,,,0.06,WUHU21623XXSP,2013-01-20 22:53:00,
2013-01-20 17:58:00,28.0,13.9,29.84,North,0,0.0,11.4,55,0.00,,,0.06,WUHU21623XXSP,2013-01-20 22:58:00,
2013-01-20 18:03:00,28.0,13.5,29.84,SE,135,0.0,11.4,54,0.00,,,0.06,WUHU21623XXSP,2013-01-20 23:03:00,
2013-01-20 18:08:00,27.7,13.1,29.84,SSW,202,0.0,10.7,54,0.00,,,0.06,WUHU21623XXSP,2013-01-20 23:08:00,
2013-01-20 18:13:00,27.7,13.1,29.85,SE,135,9.8,9.8,54,0.00,,,0.06,WUHU21623XXSP,2013-01-20 23:13:00,
2013-01-20 18:18:00,27.5,12.1,29.85,SSE,157,7.6,11.0,52,0.00,,,0.06,WUHU21623XXSP,2013-01-20 23:18:00,
2013-01-20 18:23:00,27.3,11.5,29.85,South,180,0.0,15.2,51,0.00,,,0.06,WUHU21623XXSP,2013-01-20 23:23:00,
2013-01-20 18:28:00,27.1,11.8,29.85,SSE,157,5.4,15.2,52,0.00,,,0.06,WUHU21623XXSP,2013-01-20 23:28:00,
2013-01-20 18:33:00,27.1,11.4,29.85,SW,225,1.6,13.0,51,0.00,,,0.06,WUHU21623XXSP,2013-01-20 23:33:00,
2013-01-20 18:38:00,27.1,11.4,29.85,ESE,112,12.8,13.2,51,0.00,,,0.06,WUHU21623XXSP,2013-01-20 23:38:00,
2013-01-20 18:43:00,26.8,11.4,29.85,SSE,157,3.4,13.2,52,0.00,,,0.06,WUHU21623XXSP,2013-01-20 23:43:00,
2013-01-20 18:48:00,26.8,11.0,29.85,SSW,202,8.3,13.4,51,0.00,,,0.06,WUHU21623XXSP,2013-01-20 23:48:00,
2013-01-20 18:53:00,26.8,10.6,29.86,East,90,0.0,13.4,50,0.00,,,0.06,WUHU21623XXSP,2013-01-20 23:53:00,
2013-01-20 18:58:00,26.8,10.6,29.85,SW,225,3.1,15.4,50,0.00,,,0.06,WUHU21623XXSP,2013-01-20 23:58:00,
2013-01-20 19:03:00,26.6,10.8,29.85,SW,225,1.1,15.4,51,0.00,,,0.06,WUHU21623XXSP,2013-01-21 00:03:00,
2013-01-20 19:08:00,26.4,10.7,29.85,SE,135,0.0,11.0,51,0.00,,,0.06,WUHU21623XXSP,2013-01-21 00:08:00,
2013-01-20 19:13:00,26.4,10.7,29.86,South,180,0.0,12.3,51,0.00,,,0.06,WUHU21623XXSP,2013-01-21 00:13:00,
2013-01-20 19:19:00,26.2,10.5,29.86,SW,225,6.5,12.3,51,0.00,,,0.06,WUHU21623XXSP,2013-01-21 00:19:00,
2013-01-20 19:24:00,26.2,10.5,29.86,SE,135,0.0,7.6,51,0.00,,,0.06,WUHU21623XXSP,2013-01-21 00:24:00,
2013-01-20 19:29:00,26.2,10.5,29.86,West,270,4.0,11.0,51,0.00,,,0.06,WUHU21623XXSP,2013-01-21 00:29:00,
2013-01-20 19:34:00,26.1,10.3,29.87,WSW,247,0.0,12.3,51,0.00,,,0.06,WUHU21623XXSP,2013-01-21 00:34:00,
2013-01-20 19:39:00,26.1,10.7,29.87,SW,225,4.7,12.3,52,0.00,,,0.06,WUHU21623XXSP,2013-01-21 00:39:00,
2013-01-20 19:44:00,25.9,10.6,29.87,ESE,112,0.0,10.7,52,0.00,,,0.06,WUHU21623XXSP,2013-01-21 00:44:00,
2013-01-20 19:49:00,25.9,10.2,29.88,WNW,292,8.3,12.8,51,0.00,,,0.06,WUHU21623XXSP,2013-01-21 00:49:00,
2013-01-20 19:54:00,25.9,10.2,29.88,ESE,112,0.0,18.1,51,0.00,,,0.06,WUHU21623XXSP,2013-01-21 00:54:00,
2013-01-20 19:59:00,25.9,10.6,29.88,WNW,292,0.0,18.1,52,0.00,,,0.06,WUHU21623XXSP,2013-01-21 00:59:00,
2013-01-20 20:04:00,25.9,10.6,29.89,SW,225,11.6,11.6,52,0.00,,,0.06,WUHU21623XXSP,2013-01-21 01:04:00,
2013-01-20 20:09:00,25.9,10.6,29.89,West,270,0.0,11.6,52,0.00,,,0.06,WUHU21623XXSP,2013-01-21 01:09:00,
2013-01-20 20:14:00,25.7,10.8,29.89,SSW,202,2.9,13.4,53,0.00,,,0.06,WUHU21623XXSP,2013-01-21 01:14:00,
2013-01-20 20:19:00,25.7,10.8,29.89,WNW,292,5.1,13.4,53,0.00,,,0.06,WUHU21623XXSP,2013-01-21 01:19:00,
2013-01-20 20:24:00,25.5,10.7,29.90,SSW,202,4.9,20.1,53,0.00,,,0.06,WUHU21623XXSP,2013-01-21 01:24:00,
2013-01-20 20:29:00,25.5,10.7,29.90,WNW,292,6.3,20.1,53,0.00,,,0.06,WUHU21623XXSP,2013-01-21 01:29:00,
2013-01-20 20:34:00,25.3,10.5,29.90,South,180,6.0,11.0,53,0.00,,,0.06,WUHU21623XXSP,2013-01-21 01:34:00,
2013-01-20 20:39:00,25.3,11.3,29.90,NW,315,0.0,15.9,55,0.00,,,0.06,WUHU21623XXSP,2013-01-21 01:39:00,
2013-01-20 20:44:00,25.2,11.2,29.90,West,270,0.0,15.9,55,0.00,,,0.06,WUHU21623XXSP,2013-01-21 01:44:00,
2013-01-20 20:49:00,25.0,11.4,29.90,SW,225,0.0,11.9,56,0.00,,,0.06,WUHU21623XXSP,2013-01-21 01:49:00,
2013-01-20 20:54:00,24.8,12.1,29.91,WSW,247,0.0,11.0,58,0.00,,,0.06,WUHU21623XXSP,2013-01-21 01:54:00,
2013-01-20 20:59:00,24.1,13.6,29.91,WNW,292,0.0,20.1,64,0.00,,,0.06,WUHU21623XXSP,2013-01-21 01:59:00,
2013-01-20 21:04:00,23.5,13.8,29.92,WSW,247,0.0,20.1,66,0.00,,,0.06,WUHU21623XXSP,2013-01-21 02:04:00,
2013-01-20 21:09:00,23.4,14.0,29.92,West,270,1.1,8.7,67,0.00,,,0.06,WUHU21623XXSP,2013-01-21 02:09:00,
2013-01-20 21:14:00,23.2,12.7,29.92,West,270,2.2,12.3,64,0.00,,,0.06,WUHU21623XXSP,2013-01-21 02:14:00,
2013-01-20 21:19:00,23.2,11.3,29.93,WSW,247,0.0,12.3,60,0.00,,,0.06,WUHU21623XXSP,2013-01-21 02:19:00,
2013-01-20 21:24:00,23.0,10.3,29.93,WNW,292,6.9,10.5,58,0.00,,,0.06,WUHU21623XXSP,2013-01-21 02:24:00,
2013-01-20 21:29:00,22.8,9.4,29.93,WNW,292,2.9,12.3,56,0.00,,,0.06,WUHU21623XXSP,2013-01-21 02:29:00,
2013-01-20 21:34:00,22.8,9.0,29.92,NNE,22,9.6,12.3,55,0.00,,,0.06,WUHU21623XXSP,2013-01-21 02:34:00,
2013-01-20 21:39:00,22.6,8.6,29.93,SW,225,0.0,11.2,54,0.00,,,0.06,WUHU21623XXSP,2013-01-21 02:39:00,
2013-01-20 21:44:00,22.6,8.8,29.93,SW,225,6.9,11.2,55,0.00,,,0.06,WUHU21623XXSP,2013-01-21 02:44:00,
2013-01-20 21:49:00,22.6,8.0,29.94,West,270,0.0,17.2,53,0.00,,,0.06,WUHU21623XXSP,2013-01-21 02:49:00,
2013-01-20 21:54:00,22.6,8.0,29.94,SE,135,6.7,17.2,53,0.00,,,0.06,WUHU21623XXSP,2013-01-21 02:54:00,
2013-01-20 21:59:00,22.5,7.4,29.94,WSW,247,0.0,18.1,52,0.00,,,0.06,WUHU21623XXSP,2013-01-21 02:59:00,
2013-01-20 22:04:00,22.3,7.2,29.94,WSW,247,7.4,18.1,52,0.00,,,0.06,WUHU21623XXSP,2013-01-21 03:04:00,
2013-01-20 22:09:00,22.3,7.6,29.94,West,270,0.0,9.2,53,0.00,,,0.06,WUHU21623XXSP,2013-01-21 03:09:00,
2013-01-20 22:14:00,22.3,7.2,29.95,SSW,202,0.0,9.2,52,0.00,,,0.06,WUHU21623XXSP,2013-01-21 03:14:00,
2013-01-20 22:19:00,22.3,7.2,29.95,SSW,202,0.0,11.2,52,0.00,,,0.06,WUHU21623XXSP,2013-01-21 03:19:00,
2013-01-20 22:24:00,22.5,7.4,29.95,SW,225,0.0,11.2,52,0.00,,,0.06,WUHU21623XXSP,2013-01-21 03:24:00,
2013-01-20 22:29:00,22.3,7.2,29.96,WNW,292,0.0,11.6,52,0.00,,,0.06,WUHU21623XXSP,2013-01-21 03:29:00,
2013-01-20 22:34:00,22.1,7.1,29.96,SSW,202,1.3,11.6,52,0.00,,,0.06,WUHU21623XXSP,2013-01-21 03:34:00,
2013-01-20 22:39:00,21.9,6.5,29.96,NW,315,7.6,10.5,51,0.00,,,0.06,WUHU21623XXSP,2013-01-21 03:39:00,
2013-01-20 22:44:00,21.7,6.7,29.96,WNW,292,5.8,11.2,52,0.00,,,0.06,WUHU21623XXSP,2013-01-21 03:44:00,
2013-01-20 22:49:00,21.6,6.1,29.96,WSW,247,0.0,11.2,51,0.00,,,0.06,WUHU21623XXSP,2013-01-21 03:49:00,
2013-01-20 22:54:00,21.4,5.9,29.97,WSW,247,0.0,10.1,51,0.00,,,0.06,WUHU21623XXSP,2013-01-21 03:54:00,
2013-01-20 22:59:00,21.0,5.2,29.97,WNW,292,0.0,14.5,50,0.00,,,0.06,WUHU21623XXSP,2013-01-21 03:59:00,
2013-01-20 23:04:00,21.0,5.2,29.97,ESE,112,0.0,14.5,50,0.00,,,0.06,WUHU21623XXSP,2013-01-21 04:04:00,
2013-01-20 23:09:00,20.8,4.6,29.97,NW,315,5.1,11.2,49,0.00,,,0.06,WUHU21623XXSP,2013-01-21 04:09:00,
2013-01-20 23:14:00,20.5,4.7,29.97,SSE,157,0.0,11.2,50,0.00,,,0.06,WUHU21623XXSP,2013-01-21 04:14:00,
2013-01-20 23:19:00,20.5,4.7,29.97,WNW,292,0.0,10.7,50,0.00,,,0.06,WUHU21623XXSP,2013-01-21 04:19:00,
2013-01-20 23:24:00,20.1,4.8,29.98,NW,315,6.9,8.7,51,0.00,,,0.06,WUHU21623XXSP,2013-01-21 04:24:00,
2013-01-20 23:29:00,19.9,4.2,29.98,West,270,8.9,8.9,50,0.00,,,0.06,WUHU21623XXSP,2013-01-21 04:29:00,
2013-01-20 23:34:00,19.9,4.2,29.98,South,180,0.0,11.6,50,0.00,,,0.06,WUHU21623XXSP,2013-01-21 04:34:00,
2013-01-20 23:39:00,19.8,4.1,29.99,WNW,292,0.0,11.6,50,0.00,,,0.06,WUHU21623XXSP,2013-01-21 04:39:00,
2013-01-20 23:44:00,19.6,3.9,29.98,SW,225,0.0,5.1,50,0.00,,,0.06,WUHU21623XXSP,2013-01-21 04:44:00,
2013-01-20 23:49:00,19.6,4.3,29.98,SW,225,0.0,13.2,51,0.00,,,0.06,WUHU21623XXSP,2013-01-21 04:49:00,
2013-01-20 23:54:00,19.6,4.7,29.99,SW,225,0.0,13.2,52,0.00,,,0.06,WUHU21623XXSP,2013-01-21 04:54:00,
2013-01-20 23:59:00,19.2,4.4,29.99,South,180,0.0,8.5,52,0.00,,,0.06,WUHU21623XXSP,2013-01-21 04:59:00,